Regional Weather Roundup
Issued by NWS Pendleton, OR

Home | Current Version | Previous Version | Text Only | Print | Product List | Glossary On
Versions: 1 2 3 4 5 6 7 8 9 10 11 12 13 14 15 16 17 18 19 20 21 22 23 24 25 26 27 28 29 30 31 32 33 34 35 36 37 38 39 40 41 42 43 44 45 46 47 48 49 50
000
ASUS46 KPDT 250425
RWRPDT
PENDLETON REGIONAL WEATHER ROUNDUP
NATIONAL WEATHER SERVICE PENDLETON OREGON
900 PM PDT SUN JUL 24 2016

NOTE: FAIR INDICATES FEW OR NO CLOUDS BELOW 12,000 FEET WITH NO
SIGNIFICANT WEATHER AND/OR OBSTRUCTIONS TO VISIBILITY.

# INDICATES UNOFFICIAL STATION AND DATA

WAZ520-250510-
EAST SLOPES OF WASHINGTON CASCADES

CITY            SKY/WX      TMP DP  RH  WIND    PRES   REMARKS
#CLE ELUM HS    N/A         74  52  46  N3      29.96R
#CLE ELUM 2NW   N/A         73  50  44  CALM    N/A
#GLENWOOD       N/A         69  55  61  CALM    29.89R
#MANASTASH CYN  N/A         65  52  63  CALM    30.01R
#NELSON 3SW     N/A         65  52  63  CALM    30.11S
#NILE           N/A         75  55  50  S1      29.21R
#RONALD 2NW     N/A         71  N/A N/A NE2     30.11R
#TEANAWAY 4NE   N/A         72  56  57  CALM    N/A
#TROUT LAKE 1NE N/A         73  57  57  CALM    29.89R
#TROUT LAKE 1E  N/A         75  59  58  CALM    29.94R
$$

WAZ521-250510-
SIMCOE HIGHLANDS

CITY            SKY/WX      TMP DP  RH  WIND    PRES   REMARKS
#CENTERVILLE 1SWN/A         76  46  34  CALM    29.84S
#GOLDENDALE 1NE N/A         76  25  15  CALM    N/A
#GOLDENDALE 4W  N/A         78  57  48  N3      29.99R
#GOODNOE HILLS  N/A         80  45  29  NE3     29.86R
#LYLE 6NE       N/A         78  57  48  S3      29.85S
$$

WAZ026-250510-
KITTITAS VALLEY

CITY            SKY/WX      TMP DP  RH  WIND    PRES   REMARKS
ELLENSBURG AP   CLEAR       77  52  42  N10     29.97R
#ELLENSBURG CWU N/A         78  52  40  N14     29.85R
#ELLENSBURG 3NE N/A         73  55  53  N3      29.98R
#ELLENSBURG     N/A         81  53  38  N7      N/A
#ELLENSBURG 1E  N/A         78  N/A N/A NW1     N/A
#KITTITAS 4N    N/A         75  52  45  N3      30.01R
#KITTITAS 3S    N/A         71  58  64  CALM    29.88R
#THORP 6N       N/A         75  51  43  W8G25   29.93R
$$

WAZ027-250510-
YAKIMA VALLEY

CITY            SKY/WX      TMP DP  RH  WIND    PRES   REMARKS
SUNNYSIDE AP    CLEAR       67  59  75  N6      29.92S
YAKIMA AIRPORT  CLEAR       82  51  34  CALM    29.93S
YAKIMA-VAGABOND N/A         82  48  31  S7      29.93R
#DONALD 2NE     N/A         79  23  12  N1      29.93R
#GRANDVIEW      N/A         79  50  36  CALM    29.89S
#MABTON         N/A         81  52  37  E1      29.90S
#MOXEE 2E       N/A         75  34  22  NE3     29.87R
#NACHES 2SW     N/A         75  61  62  CALM    29.98F
#TERRACE HTS    N/A         78  53  42  CALM    29.85R
#WEST VALLEY    N/A         80  55  42  CALM    29.86R
#W YAKIMA       N/A         79  55  44  CALM    29.89R
#WHITE SWAN 5E  N/A         79  58  49  CALM    29.88S
#WILEY CITY 3W  N/A         73  51  46  CALM    29.92S
$$

WAZ028-250510-
LOWER COLUMBIA BASIN...WASHINGTON

CITY            SKY/WX      TMP DP  RH  WIND    PRES   REMARKS
PASCO           CLEAR       82  48  31  CALM    29.89F
PROSSER AWOS    N/A         73  55  53  CALM    29.95R
RICHLAND AWOS   CLEAR       79  49  35  S3      29.89S
#BENTON CITY    N/A         81  50  34  NW1     29.78S
#CONNELL 5N     N/A         78  49  36  CALM    29.88S
#CONNELL 5NW    N/A         76  55  48  CALM    29.84S
#ELTOPIA 6NW    N/A         82  49  32  CALM    28.89F
#KAHLOTUS       N/A         82  47  29  N5      29.88R
#KENNEWICK 3S   N/A         80  51  36  CALM    29.88S
#PATERSON       N/A         83  48  30  E5      29.85S
#SAGEMOOR 2W    N/A         78  51  39  N1      29.73S
#TOUCHET 2S     N/A         73  50  44  W1      29.86S
#WEST PASCO     N/A         80  52  38  CALM    29.87S
$$

WAZ029-250510-
FOOTHILLS OF THE BLUES...WASHINGTON

CITY            SKY/WX      TMP DP  RH  WIND    PRES   REMARKS
WALLA WALLA AP  CLEAR       80  50  35  S8      29.93S
#CLYDE 6NW      N/A         78  47  34  N1      29.87R
#LOWDEN 2SE     N/A         75  55  50  CALM    29.86R
#PLEASANT VIEW 1N/A         80  46  30  W6      29.90S
#PRESCOTT       N/A         72  50  46  CALM    29.85R
#WHITMAN COLLEGEN/A         79  56  45  S3      29.92S
#WAITSBURG 5S   N/A         73  49  43  CALM    29.96S
#WAITSBURG 8N   N/A         66  17  15  CALM    29.89S
#WALLA WALLA U  N/A         81  57  44  CALM    29.87R
#WHITMAN MISSIONN/A         78  58  50  CALM    29.88S
$$

WAZ030-250510-
BLUE MOUNTAINS...WASHINGTON

CITY            SKY/WX      TMP DP  RH  WIND    PRES   REMARKS
#DIXIE 5SE      N/A         72  46  39  NW6     29.97S
$$

ORZ009-041-WAZ024-250510-
COLUMBIA RIVER GORGE

CITY            SKY/WX      TMP DP  RH  WIND    PRES   REMARKS
HOOD RIVER AP   CLEAR       79  57  47  CALM    29.91R
THE DALLES AP   CLEAR       83  55  38  NW10    29.87R
#ARLINGTON AIRPON/A         84  47  28  CALM    29.89R
#LYLE           N/A         83  60  46  NW1     29.88R
#MARYHILL 2W    N/A         86  45  24  CALM    N/A
#MOSIER 1S      N/A         79  45  30  W6      29.91S
#MURDOCK        N/A         82  60  47  W7      29.83R
#RUFUS DOT      N/A         87  50  28  CALM    N/A
#SMITHVILLE     N/A         84  56  38  NW8     29.81R

$$

ORZ510-250510-
NORTH CENTRAL OREGON

CITY            SKY/WX      TMP DP  RH  WIND    PRES   REMARKS
#ANTELOPE       N/A         73  44  35  NE1     29.73R
#CHENOWITH 1W   N/A         78  51  39  W9      N/A
#COW CYN RST AREN/A         78  N/A N/A N8      N/A
#DUFUR 9E       N/A         78  42  28  E8      29.93S
#GRASS VALLEY 1SN/A         73  41  31  CALM    29.95S
#KENT DOT       N/A         74  35  24  N8      N/A
#SHANIKO 5WSW   N/A         75  36  24  N14     N/A
#SHANIKO 4NW    N/A         73  51  46  N8      30.07R
#TYGH VALLEY 2NEN/A         83  44  25  N5      29.86S
#WAPANITIA AIRPON/A         77  41  28  CALM    29.90R
#WASCO DOT      N/A         81  43  26  E6      N/A
#WASCO AIRPORT  N/A         81  39  22  E2      N/A
#WASCO 5NE      N/A         68  41  37  CALM    29.88R
$$

ORZ511-250510-
CENTRAL OREGON

CITY            SKY/WX      TMP DP  RH  WIND    PRES   REMARKS
BEND AIRPORT    CLEAR       77  39  25  N9      30.03R
MADRAS AIRPORT  CLEAR       81  43  26  N9      30.01R
PRINEVILLE AP   CLEAR       75  41  29  N7      30.02R
REDMOND AIRPORT CLEAR       79  37  22  N9      30.01R
#ASHWOOD SCHOOL N/A         79  42  27  CALM    29.97R
#BEND 1SW       N/A         73  40  30  CALM    N/A
#BEND-AWBREY    N/A         77  40  26  N2      30.01R
#CULVER         N/A         75  44  33  N1      29.81R
#CULVER 8W      N/A         80  37  21  CALM    30.01S
#LAKE BILLY CHINN/A         82  N/A N/A N9      30.03R
#MADRAS 4S      N/A         80  19  10  N5      30.07R
#POWELL BUTTE   N/A         74  43  33  E1      29.97R
#PRINEVILLE 3N  N/A         75  45  34  N2      29.91R
#WARM SPRINGS   N/A         86  46  25  CALM    29.91R

$$


ORZ509-250510-
EAST SLOPES OF OREGON CASCADES

CITY            SKY/WX      TMP DP  RH  WIND    PRES   REMARKS
SISTERS AWOS    N/A         79  37  22  CALM    30.01R
#CAMP SHERMAN   N/A         69  44  40  CALM    29.97R
#LA PINE DOT    N/A         75  28  18  NW6     N/A
#LA PINE 4NW    N/A         71  45  39  CALM    29.91R
#LAVA BUTTE DOT N/A         73  36  26  CALM    N/A
#SISTERS AIRPOR N/A         77  47  35  CALM    30.17S
#SISTERS ODOT   N/A         80  N/A N/A CALM    N/A
#SISTERS 3N     N/A         71  35  27  CALM    30.03R
#SUNRIVER       N/A         73  42  33  CALM    29.90R
#SUTTLE LK DOT  N/A         68  45  44  SW6     N/A
#TUMALO 3W      N/A         77  40  26  N3      29.75R
#WANOGA BUTTE D N/A         68  33  27  NE6     N/A

$$

ORZ044-250510-
LOWER COLUMBIA BASIN...OREGON

CITY            SKY/WX      TMP DP  RH  WIND    PRES   REMARKS
HERMISTON       CLEAR       77  50  39  CALM    29.89S
#BOARDMAN 8SW   N/A         84  50  31  NE2     29.88R
#ECHO 8SW       N/A         72  49  44  W2      29.92R
#I-84 EX 198 DOTN/A         83  50  32  E3      N/A
#UMATILLA       N/A         85  48  28  CALM    29.80R
$$

ORZ507-250510-
NORTHERN FOOTHILLS OF THE BLUES

CITY            SKY/WX      TMP DP  RH  WIND    PRES   REMARKS
PENDLETON AIRPT CLEAR       76  39  26  N6      29.95R
#ADAMS 3WNW     N/A         71  47  42  NE2     29.88S
#ATHENA         N/A         73  49  43  CALM    29.92R
#CAYUSE         N/A         75  48  38  NE3     29.87R
#HELIX SCHOOL   N/A         73  47  40  CALM    29.89S
#HELIX 3N       N/A         70  45  41  N1      29.95S
#HELIX 6SW      N/A         79  47  32  CALM    29.94S
#HOLDMAN 5SE    N/A         76  46  34  CALM    29.94R
#HOLDMAN 6E     N/A         75  45  34  CALM    29.70S
#M-F GROVE ELEM N/A         76  49  39  CALM    29.91S
#M-FREEWATER 5SEN/A         72  53  51  W3      29.94S
#PENDLETON DNTN N/A         79  41  26  CALM    29.95S
#PDT AQUATIC CTRN/A         79  37  22  CALM    29.77S
#PDT SUNRIDGE   N/A         80  44  28  CALM    29.94R
#PENDLETON 7NW  N/A         76  47  36  CALM    32.37S
#PILOT ROCK 1S  N/A         73  38  28  S2      29.98R
#PILOT ROCK     N/A         76  43  31  S1      29.99R
#TUTUILLA       N/A         72  45  38  CALM    29.91S
#UMAPINE 2E     N/A         68  58  70  CALM    29.88S
#WESTON SCHOOL  N/A         74  44  34  CALM    29.80R

$$

ORZ508-250510-
SOUTHERN FOOTHILLS OF THE BLUES

CITY            SKY/WX      TMP DP  RH  WIND    PRES   REMARKS
LEXINGTON       CLEAR       75  45  34  SE7     29.99S
#AJAX           N/A         78  37  23  CALM    27.74S
#CONDON 5W      N/A         72  38  29  NE5     30.03R
#HEPPNER EOC    N/A         77  45  32  S3      29.83S
#HEPPNER 4NE    N/A         69  45  42  E6      29.90S
#LEXINGTON 2SE  N/A         76  46  34  SE1     29.94R
#RUGGS 5NE      N/A         73  41  31  NE3     30.20F
#RUGGS 2SW      N/A         73  44  35  CALM    29.91S

$$

ORZ502-503-250510-
BLUE MOUNTAINS

CITY            SKY/WX      TMP DP  RH  WIND    PRES   REMARKS
MEACHAM         CLEAR       65  44  46  CALM    30.09S
#BATTLE MTN DOT N/A         65  40  40  N1      N/A
#CUTSFORTH PARK N/A         60  47  62  CALM    29.88S
#GREENHORN 9SW  N/A         70  37  30  CALM    30.03R
#HARDMAN 10S    N/A         61  34  36  N5      30.22S
#HEPPNER 15SE   N/A         63  44  50  E1      25.63F
#LADD CYN SMT   N/A         73  41  31  SW2     N/A
#LADD CREEK ODOTN/A         77  48  36  W3      N/A
#N POWDER DOT   N/A         71  49  46  N6      N/A
#PIKES PEAK     N/A         73  47  40  CALM    27.99S
#TOLLGATE       N/A         59  47  64  CALM    30.01S
#TROY SCHOOL    N/A         78  51  39  CALM    29.72R
#UKIAH          N/A         70  43  38  N2      29.86R
#WESTON 4E      N/A         70  48  46  CALM    29.86S
$$

ORZ505-250510-
JOHN DAY BASIN

CITY            SKY/WX      TMP DP  RH  WIND    PRES   REMARKS
JOHN DAY        CLEAR       81  31  16  CALM    30.05R
#DAYVILLE SCHOOLN/A         84  40  21  W6      29.94R
#MITCHELL 8NW   N/A         77  40  26  CALM    30.06R
#MONUMENT HS    N/A         82  42  24  CALM    29.84R
#MT. VERNON 5SE N/A         78  34  20  CALM    30.02R
#SPRAY SCHOOL   N/A         82  N/A N/A N6      N/A
$$

ORZ506-250510-
OCHOCO AND JOHN DAY HIGHLANDS

CITY            SKY/WX      TMP DP  RH  WIND    PRES   REMARKS
#BUCK CREEK DOT N/A         84  31  15  N8      N/A
#HORSE RIDGE DO N/A         78  31  18  NW8     N/A
#KEYES SMT DOT  N/A         75  41  29  E6      N/A
#PAULINA SCHOOL N/A         81  34  18  NW7     N/A
#PINE MTN OBS   N/A         66  34  30  NW7     N/A
#SENECA         N/A         73  N/A N/A CALM    N/A
#SENECA 9NW     N/A         70  34  26  CALM    29.86R
$$

ORZ049-250510-
GRANDE RONDE VALLEY

CITY            SKY/WX      TMP DP  RH  WIND    PRES   REMARKS
LA GRANDE       CLEAR       75  41  29  NW8     30.00R
#COVE           N/A         70  56  61  NW5     30.05R
#COVE SCHOOL    N/A         69  53  57  CALM    30.03R
#COVE 6NW       N/A         71  51  49  CALM    29.88R
#ELGIN 3N       N/A         72  44  37  CALM    29.99R
#ELGIN 1E       N/A         77  49  37  CALM    N/A
#ISLAND CITY 4N N/A         76  59  56  CALM    29.95R
#LADD CYN DOT   N/A         76  49  39  SE6     N/A
#UNION 1S       N/A         75  51  43  E2      29.79R
$$

ORZ050-250510-
WALLOWA COUNTY

CITY            SKY/WX      TMP DP  RH  WIND    PRES   REMARKS
JOSEPH AIRPORT  CLEAR       66  45  47  S3      N/A
#ENTERPRISE AP  N/A         49  29  46  CALM    30.02R
#ENTERPRISE HS  N/A         68  52  57  CALM    30.07R
#IMNAHA SCHOOL  N/A         75  49  40  CALM    29.94R
#JOSEPH 3N      N/A         63  47  56  SW3     30.10R
#LOSTINE        N/A         70  45  41  S2      29.72R
#LOSTINE 3SE    N/A         65  43  45  CALM    30.04R
#MT HOWARD 8000 N/A         57  40  53  N1      30.37S
#PROMISE 1S     N/A         69  46  44  CALM    30.00R
#WALLOWA SCHOOL N/A         71  52  51  CALM    29.99R



$$



USA.gov is the U.S. government's official web portal to all federal, state and local government web resources and services.